Home > Weather > Pasco > Past weeks

Flag for USA Past Weather in Pasco, Washington, USA — Yesterday and Last 2 Weeks

Now
84 °F

Sunny.


Feels Like: 82 °F
Forecast: 59 / 94 °F
Wind: 9 mph from Southwest

Location: Tri-Cities Airport

Current Time: Jun 30, 2016 at 9:38:27 PM

Latest Report: Jun 30, 2016 at 8:53 PM


Visibility: 10 mi

Pressure: 29.85 "Hg

Humidity: 30%

Dew Point: 49 °F

Location of PascoLocation

Past Weather in Pasco — Graph

°F

Pasco Temperature Yesterday

Maximum temperature yesterday: 98 °F (at 6:53 PM)
Minimum temperature yesterday: 70 °F (at 2:53 AM)
Average temperature yesterday: 83 °F

High & Low Weather Summary for the Past Weeks

 TemperatureHumidityPressure
High98 °F (Jun 28, 4:53 PM)90% (Jun 18, 5:53 AM)30.40 "Hg (Jun 18, 5:53 AM)
Low41 °F (Jun 17, 4:53 AM)16% (Jun 30, 4:53 PM)29.80 "Hg (Jun 15, 7:53 PM)
Average71 °F46%30.04 "Hg
* Reported Jun 15 7:53 PM — Jun 30 7:53 PM, Pasco, Weather by CustomWeather, © 2016

Note: Actual official high and low records may vary slightly from our data, if they occured in-between our weather recording intervals... More about our weather records

Advertising

Pasco Weather History for the Previous 24 Hours

Scroll right to see more
 ConditionsComfort  
Time TempWeatherWind HumidityBarometerVisibility
7:53 PM
Thu, Jun 30
91 °FSunny.8 mph20%29.84 "Hg10 mi
6:53 PM93 °FSunny.9 mph18%29.84 "Hg10 mi
5:53 PM94 °FSunny.7 mph18%29.85 "Hg10 mi
4:53 PM93 °FSunny.6 mph16%29.87 "Hg10 mi
3:53 PM92 °FSunny.5 mph20%29.90 "Hg10 mi
2:53 PM91 °FSunny.3 mph20%29.92 "Hg10 mi
1:53 PM89 °FSunny.N/A22%29.95 "Hg10 mi
12:53 PM87 °FSunny.N/A24%29.97 "Hg10 mi
11:53 AM84 °FSunny.6 mph27%29.99 "Hg10 mi
10:53 AM82 °FSunny.8 mph29%30.01 "Hg10 mi
9:53 AM79 °FSunny.9 mph32%30.01 "Hg10 mi
8:53 AM76 °FSunny.8 mph43%30.02 "Hg10 mi
7:53 AM72 °FSunny.10 mph52%30.01 "Hg10 mi
6:53 AM69 °FSunny.9 mph55%30.00 "Hg10 mi
5:53 AM67 °FClear.10 mph59%29.99 "Hg10 mi
4:53 AM67 °FClear.8 mph61%29.98 "Hg10 mi
3:53 AM68 °FClear.9 mph59%29.96 "Hg10 mi
2:53 AM69 °FClear.10 mph59%29.95 "Hg10 mi
1:53 AM70 °FClear.10 mph59%29.93 "Hg10 mi
12:53 AM72 °FClear.9 mph55%29.92 "Hg10 mi
11:53 PM
Wed, Jun 29
75 °FClear.13 mph50%29.90 "Hg10 mi
10:53 PM77 °FClear.8 mph48%29.88 "Hg10 mi
9:53 PM83 °FClear.12 mph31%29.85 "Hg10 mi
Weather by CustomWeather, © 2016

See weather overviewHow to use our weather pages